Tracking 33470 objects as of 12-Mar-2026
HD Live streaming from Space Station
objects crossing your sky now

COSMOS 2143 DEB

Track COSMOS 2143 DEB now!
10-day predictions


NORAD ID: 57721
Int'l Code: 1991-033J
Perigee: 1,333.5 km
Apogee: 1,411.9 km
Inclination: 82.1 °
Period: 113.0 minutes
Semi major axis: 7743 km
RCS: Unknown
Launch date: May 16, 1991
Source: Commonwealth of Independent States (former USSR) (CIS)
Launch site: PLESETSK MISSILE AND SPACE COMPLEX (PKMTR)

Note: This is SATELLITE DEBRIS
Your satellite tracking list
Your tracking list is empty




NASA's NSSDC Master Catalog

Two Line Element Set (TLE):
1 57721U 91033J   26070.63733827 -.00000509  00000-0 -24622-2 0  9996
2 57721  82.1388 319.4717 0050619 268.7656  90.7642 12.74031972121285
Source of the keplerian elements: AFSPC